Zurück zum Katalog

TIANMU-1 06

AktivWissenschaftSSO
NORAD 55976·PAYLOAD·🇨🇳 China

Gestartet Mar 22, 2023 von Jiuquan Satellite Launch Center

Loading…

Nächste Überflüge (nächste 24 Stunden)

TLE

AktuellSource: Space-Track

Epoche: Sep 14, 2026, 13:54 UTC

1 55976U 23039D   26257.57932047  .00013508  00000-0  24132-3 0  9990
2 55976  97.5252  75.5485 0003538 125.6809 234.4772 15.50156432194687

Verfolge TIANMU-1 06 in Echtzeit mit AllMySat

Download on the App Store